GW0740 Weather Reports


time (UTC)temp
C
wind
direction
speed
KPH
gust
KPH
rain 1hr
cm
rain 24hr
cm
rain mn
cm
humidity
%
barometer
mb
20260507174550 12 0 0.0 0.0 0.00 0.13 0.13 84 1011.2
20260507174031 12 0 0.0 0.0 0.00 0.13 0.13 85 1011.3
20260507173532 12 0 0.0 0.0 0.00 0.13 0.13 84 1011.2
20260507173048 12 0 0.0 0.0 0.00 0.13 0.13 84 1011.3
20260507172531 12 0 0.0 0.0 0.00 0.13 0.13 85 1011.5
20260507172031 12 0 0.0 0.0 0.00 0.13 0.13 85 1011.6
20260507171557 12 0 0.0 0.0 0.00 0.13 0.13 85 1011.5
20260507171033 12 0 0.0 1.6 0.00 0.13 0.13 86 1011.5
20260507170532 12 0 0.0 1.6 0.00 0.13 0.13 86 1011.6
20260507170042 12 0 0.0 1.6 0.00 0.13 0.13 88 1011.7
20260507165531 12 0 0.0 0.0 0.00 0.13 0.13 88 1011.8
20260507165029 12 0 0.0 0.0 0.00 0.13 0.13 88 1012.0
20260507164603 12 0 0.0 0.0 0.00 0.13 0.13 88 1012.0
20260507164031 12 0 0.0 0.0 0.00 0.13 0.13 88 1012.1
20260507163532 12 0 0.0 0.0 0.00 0.13 0.13 88 1012.2
20260507163041 11 0 0.0 0.0 0.00 0.13 0.13 88 1012.2
20260507162531 11 0 0.0 0.0 0.00 0.13 0.13 88 1012.2
20260507162032 11 0 0.0 3.2 0.03 0.13 0.13 88 1012.2
20260507161544 11 0 0.0 3.2 0.03 0.13 0.13 89 1012.1
20260507161031 11 0 0.0 0.0 0.03 0.13 0.13 89 1012.0
20260507160532 11 0 0.0 0.0 0.03 0.13 0.13 89 1012.1
20260507160045 11 0 0.0 0.0 0.03 0.13 0.13 89 1012.2
20260507155533 11 0 0.0 0.0 0.03 0.15 0.13 89 1012.2
20260507155032 11 0 0.0 0.0 0.03 0.15 0.13 88 1012.3
20260507154542 11 0 0.0 3.2 0.03 0.15 0.13 88 1012.4
20260507154031 11 0 0.0 3.2 0.03 0.15 0.13 88 1012.3
20260507153531 11 0 0.0 3.2 0.03 0.15 0.13 88 1012.4
20260507153049 11 0 0.0 4.8 0.03 0.15 0.13 87 1012.4
20260507152532 12 0 0.0 6.4 0.03 0.15 0.13 86 1012.2
20260507152032 12 0 0.0 6.4 0.00 0.13 0.10 86 1012.2
20260507151545 12 206 0.0 6.4 0.00 0.13 0.10 86 1012.2
20260507151032 12 0 0.0 6.4 0.00 0.13 0.10 85 1012.3
20260507150532 13 0 0.0 0.0 0.00 0.13 0.10 85 1012.1
20260507150042 13 0 0.0 0.0 0.00 0.13 0.10 86 1012.0
20260507145532 13 0 0.0 0.0 0.00 0.28 0.10 86 1012.1
20260507145032 13 0 0.0 0.0 0.00 0.28 0.10 86 1012.0
20260507144540 13 0 0.0 0.0 0.00 0.28 0.10 86 1012.0
20260507144033 13 0 0.0 0.0 0.00 0.28 0.10 87 1012.0
20260507143532 13 0 0.0 4.8 0.00 0.28 0.10 87 1012.0
20260507143052 13 0 0.0 4.8 0.00 0.28 0.10 86 1011.9
20260507142532 13 0 0.0 4.8 0.00 0.28 0.10 87 1012.1
20260507142032 13 0 0.0 3.2 0.00 0.28 0.10 87 1012.0
20260507141542 13 308 0.0 0.0 0.00 0.28 0.10 87 1012.1
20260507141033 13 0 0.0 0.0 0.00 0.28 0.10 87 1012.2
20260507140532 13 0 0.0 0.0 0.00 0.28 0.10 87 1012.1
20260507140045 13 0 0.0 0.0 0.00 0.28 0.10 87 1012.3
20260507135532 13 0 0.0 0.0 0.00 0.38 0.10 86 1012.3
20260507135029 13 0 0.0 0.0 0.00 0.38 0.10 87 1012.3
20260507134551 13 0 0.0 0.0 0.00 0.38 0.10 87 1012.3
20260507134032 13 0 0.0 4.8 0.00 0.38 0.10 87 1012.3
20260507133532 13 0 0.0 4.8 0.00 0.38 0.10 86 1012.4
20260507133042 13 0 0.0 0.0 0.00 0.38 0.10 86 1012.2
20260507132531 13 0 0.0 0.0 0.00 0.38 0.10 87 1012.1
20260507132031 13 0 0.0 1.6 0.00 0.38 0.10 87 1011.9
20260507131541 13 0 0.0 1.6 0.00 0.38 0.10 87 1012.1
20260507131032 13 0 0.0 1.6 0.00 0.38 0.10 87 1011.8
20260507130532 13 0 0.0 0.0 0.00 0.38 0.10 87 1011.8
20260507130042 13 0 0.0 0.0 0.00 0.38 0.10 87 1012.1
20260507125531 13 0 0.0 1.6 0.00 0.38 0.10 87 1012.1
20260507125030 13 0 0.0 1.6 0.00 0.38 0.10 88 1012.0
20260507124543 12 0 0.0 1.6 0.00 0.38 0.10 88 1012.0
20260507124029 12 0 0.0 0.0 0.00 0.38 0.10 88 1012.0
20260507123529 12 0 0.0 0.0 0.00 0.38 0.10 88 1012.2
20260507123040 12 0 0.0 0.0 0.00 0.38 0.10 88 1011.8
20260507122529 12 0 0.0 4.8 0.00 0.38 0.10 88 1011.9
20260507122028 12 0 0.0 4.8 0.00 0.38 0.10 88 1012.1
20260507121541 12 0 0.0 4.8 0.00 0.38 0.10 88 1012.0
20260507121034 12 0 0.0 0.0 0.00 0.38 0.10 88 1012.0
20260507120528 12 0 0.0 0.0 0.00 0.38 0.10 88 1012.0
20260507120040 12 0 0.0 0.0 0.00 0.38 0.10 88 1011.8
20260507115531 12 0 0.0 0.0 0.00 0.38 0.10 88 1011.8
20260507115032 12 0 0.0 0.0 0.00 0.38 0.10 88 1011.9
20260507114538 12 0 0.0 0.0 0.00 0.38 0.10 88 1011.9
20260507114033 12 0 0.0 0.0 0.00 0.38 0.10 88 1012.0
20260507113531 12 0 0.0 0.0 0.00 0.38 0.10 89 1012.0
20260507113043 12 0 0.0 0.0 0.00 0.38 0.10 88 1012.0
20260507112531 12 0 0.0 0.0 0.00 0.38 0.10 88 1012.0
20260507112030 12 0 0.0 0.0 0.00 0.38 0.10 88 1011.8
20260507111542 12 0 0.0 0.0 0.00 0.38 0.10 88 1011.7
20260507111028 12 0 0.0 0.0 0.00 0.38 0.10 88 1011.5
20260507110531 12 0 0.0 0.0 0.00 0.38 0.10 89 1011.4
20260507110048 12 0 0.0 0.0 0.00 0.38 0.10 88 1011.5
20260507105528 12 0 0.0 0.0 0.00 0.38 0.10 88 1011.7
20260507105031 12 0 0.0 0.0 0.00 0.38 0.10 88 1011.6
20260507104540 12 0 0.0 0.0 0.00 0.38 0.10 88 1011.5
20260507104032 12 0 0.0 0.0 0.00 0.38 0.10 88 1011.4
20260507103531 12 0 0.0 0.0 0.00 0.38 0.10 88 1011.2
20260507103038 12 0 0.0 0.0 0.00 0.38 0.10 88 1011.2
20260507102531 12 0 0.0 0.0 0.00 0.38 0.10 88 1011.2
20260507102031 12 0 0.0 0.0 0.00 0.38 0.10 88 1011.0
20260507101547 12 0 0.0 0.0 0.00 0.38 0.10 88 1011.0
20260507101033 12 0 0.0 0.0 0.00 0.38 0.10 88 1010.6
20260507100532 12 0 0.0 0.0 0.00 0.38 0.10 88 1010.5
20260507100045 12 0 0.0 0.0 0.00 0.38 0.10 88 1010.9
20260507095533 12 0 0.0 0.0 0.03 0.38 0.10 88 1011.0
20260507095033 12 0 0.0 0.0 0.03 0.38 0.10 88 1011.1
20260507094539 12 0 0.0 0.0 0.03 0.38 0.10 88 1011.4
20260507094033 12 0 0.0 0.0 0.05 0.38 0.10 88 1011.5
20260507093532 12 0 0.0 0.0 0.08 0.38 0.10 88 1011.2
20260507093040 13 0 0.0 0.0 0.08 0.38 0.10 88 1011.4
20260507092534 13 0 0.0 0.0 0.08 0.38 0.10 89 1011.4
20260507092033 13 0 0.0 0.0 0.08 0.38 0.10 88 1011.4
20260507091604 13 0 0.0 0.0 0.10 0.38 0.10 88 1011.2
20260507091034 13 0 0.0 0.0 0.10 0.38 0.10 88 1011.0
20260507090532 13 0 0.0 3.2 0.10 0.38 0.10 88 1011.1
20260507090046 13 0 0.0 6.4 0.10 0.38 0.10 88 1010.9
20260507085532 14 0 0.0 6.4 0.08 0.36 0.08 88 1010.8
20260507085033 15 0 0.0 6.4 0.08 0.36 0.08 88 1010.7
20260507084542 15 180 0.0 6.4 0.08 0.36 0.08 88 1010.5
20260507084032 16 0 1.6 6.4 0.05 0.33 0.05 88 1010.5
20260507083533 16 172 0.0 6.4 0.03 0.30 0.03 88 1010.3
20260507083041 17 0 0.0 8.0 0.03 0.30 0.03 88 1010.3
20260507082531 17 180 1.6 8.0 0.03 0.30 0.03 88 1010.2
20260507082032 17 0 0.0 0.0 0.03 0.30 0.03 87 1009.9
20260507081549 17 0 0.0 0.0 0.00 0.28 0.00 87 1009.8
20260507081032 17 0 0.0 0.0 0.00 0.28 0.00 87 1010.0
20260507080532 17 0 0.0 0.0 0.00 0.28 0.00 87 1010.2
20260507080040 17 0 0.0 0.0 0.00 0.28 0.00 87 1010.2
20260507075532 17 0 0.0 0.0 0.00 0.28 0.00 87 1010.1
20260507075033 17 0 0.0 0.0 0.00 0.28 0.00 87 1009.8
20260507074546 18 0 0.0 0.0 0.00 0.28 0.00 87 1009.6
20260507074033 18 0 0.0 0.0 0.00 0.28 0.00 88 1009.4
20260507073535 18 0 0.0 0.0 0.00 0.28 0.00 88 1009.2
20260507073043 18 0 0.0 0.0 0.00 0.28 0.00 88 1009.2
20260507072533 18 0 0.0 0.0 0.00 0.28 0.00 88 1009.6
20260507072035 18 0 0.0 0.0 0.00 0.28 0.00 88 1009.6
20260507071543 18 0 0.0 0.0 0.00 0.28 0.00 88 1009.3
20260507071034 18 0 0.0 0.0 0.00 0.28 0.00 88 1009.4
20260507070532 18 0 0.0 0.0 0.00 0.28 0.00 87 1009.5
20260507070059 18 0 0.0 0.0 0.00 0.28 0.00 87 1009.6
20260507065532 18 0 0.0 0.0 0.00 0.28 0.00 87 1009.4
20260507065032 19 0 0.0 0.0 0.00 0.28 0.00 87 1009.2
20260507064541 19 0 0.0 0.0 0.00 0.28 0.00 86 1009.1
20260507064033 19 0 0.0 1.6 0.00 0.28 0.00 86 1009.1
20260507063532 19 0 0.0 1.6 0.00 0.28 0.00 86 1008.9
20260507063040 19 0 0.0 1.6 0.00 0.28 0.00 85 1008.9
20260507062535 20 0 0.0 1.6 0.00 0.28 0.00 85 1009.0
20260507062034 20 0 0.0 0.0 0.00 0.28 0.00 85 1009.0
20260507061545 20 0 0.0 1.6 0.00 0.28 0.00 84 1008.8
20260507061031 20 0 0.0 1.6 0.00 0.28 0.00 85 1008.8
20260507060531 20 0 0.0 0.0 0.00 0.28 0.00 84 1008.8
20260507060054 20 0 0.0 0.0 0.00 0.28 0.00 84 1008.6
20260507055533 20 0 0.0 0.0 0.00 0.28 0.00 84 1008.7
20260507055033 20 0 0.0 0.0 0.00 0.28 0.00 84 1008.7
20260507054547 20 0 0.0 0.0 0.00 0.28 0.00 84 1008.8
20260507054033 20 0 0.0 0.0 0.00 0.28 0.00 84 1008.9
20260507053534 20 0 0.0 0.0 0.00 0.28 0.00 84 1008.9
20260507053048 20 0 0.0 0.0 0.00 0.28 0.00 84 1008.7
20260507052532 20 0 0.0 0.0 0.00 0.28 0.00 84 1008.8
20260507052029 20 0 0.0 1.6 0.00 0.28 0.00 84 1008.9
20260507051542 20 0 0.0 1.6 0.00 0.28 0.00 84 1008.9
20260507051032 20 0 0.0 0.0 0.00 0.28 0.00 84 1009.2
20260507050534 20 0 0.0 4.8 0.00 0.28 0.00 84 1009.2
20260507050050 20 0 0.0 4.8 0.00 0.28 0.00 84 1009.6
20260507045534 20 0 0.0 4.8 0.00 0.28 0.00 85 1009.7
20260507045033 20 0 0.0 3.2 0.00 0.28 0.00 85 1009.9
20260507044547 19 0 0.0 3.2 0.00 0.28 0.00 86 1009.9
20260507044032 19 0 0.0 3.2 0.00 0.28 0.00 86 1010.0
20260507043532 19 0 0.0 3.2 0.00 0.28 0.00 86 1010.0
20260507043042 19 0 0.0 0.0 0.00 0.28 0.00 86 1010.2
20260507042530 19 0 0.0 0.0 0.00 0.28 0.00 86 1010.1
20260507042029 19 0 0.0 0.0 0.00 0.28 0.00 86 1010.1
20260507041547 19 0 0.0 0.0 0.00 0.28 0.00 86 1010.5
20260507041032 19 0 0.0 0.0 0.00 0.28 0.00 86 1010.3
20260507040534 19 0 0.0 0.0 0.00 0.28 0.00 85 1010.1
20260507040042 19 0 0.0 0.0 0.00 0.28 0.00 85 1009.8
20260507035532 19 0 0.0 0.0 0.00 0.28 0.28 85 1009.6
20260507035032 19 0 0.0 0.0 0.00 0.28 0.28 85 1009.9
20260507034552 19 0 0.0 0.0 0.00 0.28 0.28 85 1009.9
20260507034033 19 0 0.0 0.0 0.00 0.28 0.28 85 1010.1
20260507033533 19 0 0.0 0.0 0.00 0.28 0.28 85 1010.4
20260507033046 19 0 0.0 0.0 0.00 0.28 0.28 85 1010.3
20260507032534 19 0 0.0 0.0 0.00 0.28 0.28 85 1010.2
20260507032032 19 0 0.0 0.0 0.00 0.28 0.28 85 1010.1
20260507031540 19 0 0.0 0.0 0.00 0.28 0.28 85 1009.9
20260507031033 19 0 0.0 0.0 0.00 0.28 0.28 85 1010.0
20260507030533 19 0 0.0 0.0 0.00 0.28 0.28 86 1009.7
20260507030042 19 0 0.0 0.0 0.00 0.28 0.28 86 1009.6
20260507025532 19 0 0.0 0.0 0.00 0.28 0.28 86 1009.5
20260507025033 19 0 0.0 0.0 0.00 0.28 0.28 86 1009.6
20260507024555 19 0 0.0 0.0 0.00 0.28 0.28 86 1009.6
20260507024033 19 0 0.0 0.0 0.00 0.28 0.28 86 1009.3
20260507023534 18 0 0.0 3.2 0.00 0.28 0.28 86 1009.5
20260507023042 18 0 0.0 3.2 0.00 0.28 0.28 86 1009.5
20260507022534 18 0 0.0 0.0 0.00 0.28 0.28 87 1009.7
20260507022033 18 0 0.0 0.0 0.00 0.28 0.28 87 1009.6
20260507021546 18 0 0.0 0.0 0.00 0.28 0.28 87 1009.7
20260507021032 18 0 0.0 0.0 0.00 0.28 0.28 87 1009.7
20260507020534 18 0 0.0 0.0 0.00 0.28 0.28 87 1009.9
20260507020048 18 0 0.0 0.0 0.00 0.28 0.28 87 1010.1
20260507015532 18 0 0.0 0.0 0.00 0.28 0.28 86 1010.2
20260507015032 18 0 0.0 0.0 0.00 0.28 0.28 86 1010.1
20260507014543 18 0 0.0 0.0 0.00 0.28 0.28 86 1010.1
20260507014032 18 0 0.0 0.0 0.00 0.28 0.28 86 1010.1
20260507013532 18 0 0.0 0.0 0.00 0.28 0.28 86 1010.2
20260507013036 18 0 0.0 0.0 0.00 0.28 0.28 86 1010.2
20260507012534 18 0 0.0 0.0 0.00 0.28 0.28 86 1010.1
20260507012035 18 0 0.0 0.0 0.00 0.28 0.28 86 1010.1
20260507011544 18 0 0.0 0.0 0.00 0.28 0.28 85 1010.0
20260507011032 19 0 0.0 0.0 0.00 0.28 0.28 85 1010.0
20260507010534 19 0 0.0 0.0 0.00 0.28 0.28 85 1010.0
20260507010055 19 0 0.0 0.0 0.00 0.28 0.28 85 1010.0
20260507005534 19 0 0.0 0.0 0.00 0.28 0.28 85 1009.9
20260507005033 19 0 0.0 0.0 0.00 0.28 0.28 85 1009.8
20260507004540 19 0 0.0 0.0 0.00 0.28 0.28 84 1009.7
20260507004033 19 0 0.0 0.0 0.00 0.28 0.28 84 1009.8
20260507003533 19 0 0.0 0.0 0.00 0.28 0.28 84 1010.0
20260507003041 20 0 0.0 0.0 0.00 0.28 0.28 83 1010.0
20260507002532 20 0 0.0 0.0 0.00 0.28 0.28 83 1010.1
20260507002032 20 0 0.0 0.0 0.00 0.28 0.28 83 1010.1
20260507001551 20 0 0.0 0.0 0.00 0.28 0.28 82 1010.0
20260507001034 20 0 0.0 0.0 0.00 0.28 0.28 82 1010.0
20260507000533 20 0 0.0 0.0 0.00 0.28 0.28 82 1010.1
20260507000043 20 0 0.0 0.0 0.00 0.28 0.28 82 1010.1
20260506235533 20 0 0.0 0.0 0.00 0.28 0.28 82 1010.2
20260506235032 20 0 0.0 0.0 0.00 0.28 0.28 81 1010.1
20260506234542 20 0 0.0 0.0 0.00 0.28 0.28 81 1010.1
20260506234032 20 0 0.0 0.0 0.00 0.28 0.28 81 1010.1
20260506233533 20 0 0.0 0.0 0.00 0.28 0.28 80 1009.8
20260506233047 20 0 0.0 0.0 0.00 0.28 0.28 79 1009.7
20260506232532 21 0 0.0 0.0 0.00 0.28 0.28 79 1009.7
20260506232032 21 0 0.0 0.0 0.00 0.28 0.28 79 1009.7
20260506231546 21 0 0.0 4.8 0.00 0.28 0.28 79 1009.7
20260506231032 21 0 0.0 4.8 0.00 0.28 0.28 78 1009.8
20260506230534 21 221 0.0 4.8 0.00 0.28 0.28 78 1009.7
20260506230052 21 0 0.0 4.8 0.00 0.28 0.28 79 1009.6
20260506225533 21 0 0.0 0.0 0.00 0.28 0.28 79 1009.5
20260506225035 21 0 0.0 0.0 0.00 0.28 0.28 79 1009.7
20260506224542 21 0 0.0 0.0 0.00 0.28 0.28 80 1009.7
20260506224028 20 0 0.0 0.0 0.00 0.28 0.28 80 1009.7
20260506223528 20 0 0.0 0.0 0.00 0.28 0.28 79 1009.8
20260506223045 20 0 0.0 0.0 0.00 0.28 0.28 80 1009.8
20260506222533 20 0 0.0 1.6 0.00 0.28 0.28 80 1009.7
20260506222034 20 0 0.0 1.6 0.00 0.28 0.28 79 1009.7
20260506221545 20 0 0.0 0.0 0.00 0.28 0.28 79 1009.8
20260506221032 20 0 0.0 0.0 0.00 0.28 0.28 79 1009.9
20260506220532 20 0 0.0 0.0 0.00 0.28 0.28 79 1009.9
20260506220052 21 0 0.0 0.0 0.00 0.28 0.28 78 1009.8
20260506215533 21 0 0.0 3.2 0.00 0.28 0.28 78 1009.7
20260506215032 21 0 0.0 4.8 0.00 0.28 0.28 78 1009.7
20260506214601 21 0 0.0 4.8 0.00 0.28 0.28 76 1009.7
20260506214033 21 0 0.0 4.8 0.00 0.28 0.28 77 1009.7
20260506213533 21 0 0.0 6.4 0.00 0.28 0.28 78 1009.6
20260506213043 21 0 0.0 8.0 0.00 0.28 0.28 77 1009.8
20260506212534 21 0 0.0 8.0 0.00 0.28 0.28 79 1009.7
20260506212034 21 0 0.0 3.2 0.00 0.28 0.28 78 1009.7
20260506211553 21 0 0.0 4.8 0.00 0.28 0.28 78 1009.8
20260506211034 21 0 0.0 6.4 0.00 0.28 0.28 78 1009.8
20260506210535 20 0 0.0 8.0 0.00 0.28 0.28 79 1009.8
20260506210049 20 0 0.0 8.0 0.00 0.28 0.28 79 1009.8
20260506205534 20 0 0.0 4.8 0.00 0.28 0.28 80 1009.9
20260506205034 20 0 0.0 3.2 0.00 0.28 0.28 81 1009.8
20260506204546 20 0 0.0 8.0 0.00 0.28 0.28 81 1009.8
20260506204033 20 0 0.0 8.0 0.00 0.28 0.28 82 1010.0
20260506203535 20 331 0.0 4.8 0.00 0.28 0.28 85 1010.0
20260506203044 20 0 0.0 0.0 0.00 0.28 0.28 85 1009.9
20260506202535 19 0 0.0 0.0 0.00 0.28 0.28 86 1009.7
20260506202035 19 0 0.0 0.0 0.00 0.28 0.28 86 1009.7
20260506201547 19 0 0.0 0.0 0.00 0.28 0.28 86 1009.8
20260506201035 19 0 0.0 0.0 0.00 0.28 0.28 86 1009.8
20260506200533 19 0 0.0 0.0 0.00 0.28 0.28 86 1010.1
20260506200041 19 0 0.0 0.0 0.00 0.28 0.28 86 1009.9
20260506195533 19 0 0.0 0.0 0.00 0.28 0.28 86 1010.0
20260506195033 19 0 0.0 0.0 0.00 0.28 0.28 85 1010.2
20260506194549 19 0 0.0 0.0 0.00 0.28 0.28 86 1009.9
20260506194034 18 0 0.0 1.6 0.00 0.28 0.28 86 1009.7
20260506193534 18 0 0.0 1.6 0.00 0.28 0.28 85 1009.6
20260506193047 18 0 0.0 1.6 0.00 0.28 0.28 85 1009.2
20260506192534 18 0 0.0 3.2 0.00 0.28 0.28 86 1009.1
20260506192034 18 0 0.0 3.2 0.00 0.28 0.28 87 1009.2
20260506191545 18 0 0.0 0.0 0.00 0.28 0.28 87 1009.6
20260506191034 18 0 0.0 0.0 0.00 0.28 0.28 87 1009.8
20260506190533 18 0 0.0 4.8 0.00 0.28 0.28 87 1010.0
20260506190042 18 0 0.0 6.4 0.00 0.28 0.28 87 1010.3
20260506185533 18 180 0.0 6.4 0.00 0.28 0.28 87 1010.2
20260506185033 18 0 0.0 0.0 0.00 0.28 0.28 87 1010.3
20260506184549 17 0 0.0 1.6 0.00 0.28 0.28 87 1010.5
20260506184116 17 0 0.0 1.6 0.00 0.28 0.28 87 1010.7
20260506183532 17 0 0.0 3.2 0.00 0.28 0.28 87 1010.2
20260506183041 17 0 0.0 3.2 0.00 0.28 0.28 87 1010.3
20260506182528 17 0 0.0 3.2 0.00 0.28 0.28 87 1010.5
20260506182034 17 0 0.0 6.4 0.00 0.28 0.28 86 1010.9
20260506181540 17 0 0.0 6.4 0.00 0.28 0.28 87 1010.8
20260506181032 17 0 0.0 6.4 0.00 0.28 0.28 86 1011.0
20260506180534 17 0 0.0 4.8 0.00 0.28 0.28 86 1011.2
20260506180045 17 0 0.0 4.8 0.00 0.28 0.28 86 1011.3
20260506175535 17 0 0.0 3.2 0.00 0.28 0.28 86 1011.4
20260506175028 17 0 0.0 14.5 0.00 0.28 0.28 86 1011.4